{"data":{"norad_id":59341,"intl_designator":"2024-057X","name":"STARLINK-31600","alt_names":[],"object_type":"PAYLOAD","status":"ACTIVE","operator":null,"country":"US","launch_date":"2024-03-25","launch_site_code":"AFETR","launch_vehicle":null,"mission":null,"orbit_class":"UNKNOWN","rcs_meters":null,"size_class":null,"mass_kg":null,"dimensions":null,"purposes":["comms"],"wikipedia_slug":null,"has_3d_model":false,"image_url":null,"decayed_at":null,"tle_current":{"epoch":"2026-05-25T05:10:44.122080Z","epoch_age_seconds":49699,"freshness":"FRESH","line1":"1 59341U 24057X   26145.21578845 -.00001020  00000+0 -27558-4 0  9993","line2":"2 59341  43.0003 122.5984 0000943 258.8305 101.2440 15.27584058121452","mean_motion":15.27584058,"eccentricity":9.43e-5,"inclination_deg":43.0003,"raan_deg":122.5984,"arg_perigee_deg":258.8305,"mean_anomaly_deg":101.244,"bstar":-2.7558e-5,"rev_number":12145,"period_min":94.266498295703,"perigee_km":482.38993625168,"apogee_km":483.6839536577,"semimajor_km":6861.1739449547,"source":"CELESTRAK","updated_at":"2026-05-25T13:38:18.907665Z"}}}